[[{"header":{"parameterUnit":"m.s-1","parameterCategory":1,"la1":30.2992,"la2":30.254,"lo1":-89.0895,"lo2":-89.0443,"dy":0.0025,"dx":0.0025,"nx":19,"ny":19,"refTime":"2026-03-13T21:00:00:Z","depth":0,"parameterNumber":2,"parameterNumberName":"U-component_of_WINDS"},"data":[0,0,0,0.8143,0.814,0.7977,0.7976,0.7801,0.78,0,0,0,0,0,0,0,0,0,0,0,0.8217,0.8217,0.8144,0.814,0.7977,0.7976,0.7801,0.78,0,0,0,0,0,0,0,0,0,0,0,0.8217,0.8217,0.8216,0.814,0.7977,0.7976,0.7801,0.7911,0,0,0,0,0,0,0,0,0,0,0.8063,0.8157,0.8217,0.8216,0.8139,0.7978,0.7976,0.7916,0.7904,0.7891,0,0.789,0,0.7843,0.779,0.779,0,0,0,0.812,0.8167,0.8101,0.8216,0.8138,0.7978,0.8045,0.7909,0.7896,0.7876,0.7887,0.7879,0.784,0.779,0.7789,0.7791,0.7792,0,0,0.8129,0.8199,0.811,0.8094,0.8127,0.805,0.804,0.7901,0.7915,0.7886,0.7874,0.7837,0.7789,0.7788,0.779,0.7791,0,0,0,0.8168,0.8207,0.8143,0.8102,0.8071,0.8046,0.8034,0.7921,0.7895,0.7872,0.7835,0.7788,0.7786,0.7789,0.7791,0.7909,0,0,0,0.8173,0.823,0.8148,0.819,0.8075,0.7995,0.8059,0.7905,0.7887,0.7836,0.7788,0.7785,0.7788,0.779,0.7903,0.7952,0,0,0,0.8218,0.8234,0.822,0.8194,0.8127,0.7996,0.7961,0.7899,0.7865,0.779,0.7785,0.7787,0.7789,0.7898,0.7943,0.7973,0,0,0,0.8286,0.8325,0.8224,0.8252,0.8129,0.8073,0.7961,0.7914,0.7864,0.7787,0.7788,0.779,0.7897,0.7938,0.7968,0.8011,0.8036,0,0,0.8374,0.8338,0.8349,0.8253,0.8235,0.8092,0.8087,0.7971,0.7896,0.7829,0.7828,0.7905,0.7942,0.7972,0.8154,0.8175,0,0,0,0.84,0.8409,0.8388,0.8347,0.8264,0.8195,0.8074,0.8031,0.7972,0.7879,0.7923,0.7942,0.7957,0.7973,0.7991,0.7998,0.7802,0.7802,0.7801,0.8622,0.853,0.8542,0.8431,0.8392,0.8269,0.8228,0.8148,0.8061,0.8074,0.8052,0.8175,0.8197,0.821,0.8219,0.8069,0.8069,0.807,0.807,0.874,0.8737,0.8629,0.8601,0.8502,0.8476,0.8359,0.8299,0.8257,0.8183,0.819,0.8115,0.8236,0.8238,0.8078,0.8076,0.8075,0.8075,0.8074,0.8874,0.8856,0.8809,0.8742,0.8699,0.8584,0.8551,0.8461,0.8374,0.8383,0.835,0.8347,0.8332,0.8374,0.8375,0.8375,0.8375,0.8376,0.8376,0.903,0.8972,0.8958,0.8877,0.884,0.8779,0.8659,0.8617,0.8548,0.8484,0.8483,0.8396,0.8267,0.8235,0.8382,0.8381,0.838,0.838,0.8379,0.9179,0.9133,0.9112,0.9076,0.8973,0.8937,0.8825,0.875,0.8703,0.8689,0.8601,0.8521,0.8475,0.846,0.8434,0.8623,0.8623,0.8623,0.8623,0.929,0.9261,0.9221,0.9169,0.9107,0.9006,0.8981,0.8888,0.8782,0.8747,0.8707,0.8664,0.8654,0.8613,0.8596,0.8569,0.8788,0.8788,0.8788,0.9376,0.9338,0.9336,0.924,0.9154,0.9081,0.9055,0.8995,0.8865,0.8793,0.8716,0.8709,0.8639,0.8622,0.8545,0.8519,0.8468,0,0]},{"header":{"parameterUnit":"m.s-1","parameterCategory":1,"la1":30.2992,"la2":30.254,"lo1":-89.0895,"lo2":-89.0443,"dy":0.0025,"dx":0.0025,"nx":19,"ny":19,"refTime":"2026-03-13T21:00:00:Z","depth":0,"parameterNumber":3,"parameterNumberName":"V-component_of_WINDS"},"data":[0,0,0,6.951,6.9513,6.9658,6.9658,6.9835,6.9837,0,0,0,0,0,0,0,0,0,0,0,6.9467,6.9469,6.951,6.9513,6.9658,6.9658,6.9835,6.9837,0,0,0,0,0,0,0,0,0,0,0,6.9467,6.9468,6.947,6.9514,6.9658,6.9658,6.9835,6.9727,0,0,0,0,0,0,0,0,0,0,6.9588,6.955,6.9468,6.947,6.9515,6.9657,6.9658,6.9722,6.9734,6.9768,0,6.9803,0,6.9823,6.9849,6.9849,0,0,0,6.9512,6.954,6.9579,6.947,6.9516,6.9657,6.9592,6.9729,6.9742,6.9784,6.9806,6.9812,6.9826,6.985,6.9851,7.0064,7.0065,0,0,6.9504,6.9492,6.957,6.9588,6.9571,6.9587,6.9597,6.9737,6.9758,6.9806,6.9816,6.9829,6.9851,6.9852,7.0063,7.0065,0,0,0,6.9482,6.9487,6.9523,6.9581,6.9608,6.9592,6.9602,6.9752,6.9765,6.9818,6.9831,6.9852,6.9854,7.0062,7.0064,7.0107,0,0,0,6.9477,6.9474,6.9519,6.9514,6.9605,6.9683,6.9614,6.9755,6.9771,6.983,6.9852,6.9856,7.0061,7.0063,7.0103,7.0128,0,0,0,6.9458,6.9472,6.9494,6.9513,6.9575,6.9681,6.9702,6.9759,6.9779,6.9849,6.9856,7.006,7.0063,7.01,7.0123,7.018,0,0,0,6.9432,6.9528,6.9494,6.9605,6.9574,6.9708,6.9701,6.98,6.9866,6.9853,7.0061,7.0064,7.0099,7.0119,7.0177,7.0227,7.0247,0,0,6.9546,6.9541,6.9607,6.9581,6.9719,6.9687,6.9829,6.9898,6.9912,7.0011,7.0017,7.0104,7.0122,7.018,7.0366,7.0382,0,0,0,6.9639,6.9686,6.9725,6.979,6.9847,6.9897,6.9946,6.9971,7.0057,6.9963,7.0142,7.0153,7.0187,7.0211,7.0224,7.0253,7.0075,7.0074,7.0074,6.9781,6.9799,6.9909,6.9943,7.0005,7.0056,7.0106,7.0147,7.0144,7.0186,7.0215,7.0327,7.0355,7.0365,7.0395,7.0244,7.0244,7.0244,7.0244,6.9948,7.0016,7.0013,7.0119,7.0135,7.0221,7.0272,7.0267,7.0347,7.0306,7.0337,7.0289,7.0382,7.0409,7.0247,7.0247,7.0246,7.0246,7.0246,7.0041,7.0078,7.011,7.0205,7.0275,7.0305,7.0383,7.0394,7.0404,7.0435,7.0465,7.0465,7.0464,7.0449,7.045,7.045,7.045,7.0451,7.0451,7.0126,7.0161,7.0228,7.0298,7.0341,7.0398,7.0449,7.0489,7.0536,7.0537,7.0537,7.0528,7.039,7.0353,7.0457,7.0456,7.0455,7.0454,7.0454,7.0285,7.0252,7.0356,7.0399,7.0481,7.0548,7.0563,7.0644,7.0679,7.0716,7.0701,7.0598,7.0591,7.0581,7.0551,7.0699,7.0699,7.0699,7.0699,7.0363,7.0363,7.0472,7.054,7.0607,7.0631,7.0742,7.0782,7.0817,7.0838,7.0819,7.078,7.0769,7.077,7.0755,7.0727,7.0917,7.0917,7.0917,7.0462,7.0469,7.0564,7.0603,7.0668,7.0722,7.0827,7.0901,7.0932,7.0926,7.0855,7.0846,7.0784,7.0764,7.0754,7.0731,7.068,0,0]}]]